View from above orbital plane
|
View from above satellite
|
Ground track
|
The orbit data is extracted from the following two-line orbital elements,
1 39441U 13066AB 19051.95066675 .00000114 00000-0 23192-4 0 9994
2 39441 97.6032 55.2590 0083212 113.4108 247.5880 14.74864287282445
Epoch (UTC): | 20 February 2019 22:48:57 |
Eccentricity: | 0.0083212 |
inclination: | 97.6032° |
perigee height: | 587 km |
apogee height: | 704 km |
right ascension of ascending node: | 55.2590° |
argument of perigee: | 113.4108° |
revolutions per day: | 14.74864287 |
mean anomaly at epoch: | 247.5880° |
orbit number at epoch: | 28244 |
The dashed part of the orbit path shows where the satellite is in the earth's shadow,
|
|